| time (UTC) | temp F | wind direction | speed MPH | gust MPH | rain 1hr in | rain 24hr in | rain mn in | humidity % | barometer mb |
| 20260504222913 | 83 | 287 | 0.0 | 4.0 | 0.00 | 0.00 | 0.00 | 81 | 1007.0 |
| 20260504222414 | 83 | 255 | 1.0 | 1.0 | 0.00 | 0.00 | 0.00 | 81 | 1007.0 |
| 20260504221913 | 83 | 240 | 0.0 | 1.0 | 0.00 | 0.00 | 0.00 | 81 | 1007.0 |
| 20260504221413 | 83 | 271 | 0.0 | 5.0 | 0.00 | 0.00 | 0.00 | 81 | 1007.0 |
| 20260504220913 | 83 | 234 | 0.0 | 5.0 | 0.00 | 0.00 | 0.00 | 82 | 1007.0 |
| 20260504220414 | 83 | 229 | 1.0 | 5.0 | 0.00 | 0.00 | 0.00 | 82 | 1007.0 |
| 20260504215913 | 83 | 219 | 0.0 | 3.0 | 0.00 | 0.00 | 0.00 | 81 | 1007.0 |
| 20260504215414 | 83 | 217 | 0.0 | 6.0 | 0.00 | 0.00 | 0.00 | 82 | 1007.0 |
| 20260504214914 | 83 | 210 | 0.0 | 6.0 | 0.00 | 0.00 | 0.00 | 82 | 1007.0 |
| 20260504214413 | 82 | 231 | 1.0 | 6.0 | 0.00 | 0.00 | 0.00 | 82 | 1008.0 |
| 20260504213913 | 82 | 236 | 0.0 | 5.0 | 0.00 | 0.00 | 0.00 | 83 | 1008.0 |
| 20260504213413 | 82 | 279 | 2.0 | 5.0 | 0.00 | 0.00 | 0.00 | 83 | 1008.0 |
| 20260504212914 | 82 | 251 | 0.0 | 5.0 | 0.00 | 0.00 | 0.00 | 83 | 1008.0 |
| 20260504212414 | 82 | 273 | 0.0 | 5.0 | 0.00 | 0.00 | 0.00 | 83 | 1008.0 |
| 20260504211914 | 82 | 240 | 2.0 | 5.0 | 0.00 | 0.00 | 0.00 | 84 | 1008.0 |
| 20260504211413 | 82 | 264 | 2.0 | 8.0 | 0.00 | 0.00 | 0.00 | 83 | 1008.0 |
| 20260504210913 | 82 | 270 | 2.0 | 8.0 | 0.00 | 0.00 | 0.00 | 84 | 1008.0 |
| 20260504210413 | 82 | 264 | 3.0 | 13.0 | 0.00 | 0.00 | 0.00 | 84 | 1008.0 |
| 20260504205913 | 82 | 274 | 5.0 | 13.0 | 0.00 | 0.00 | 0.00 | 84 | 1008.0 |
| 20260504205414 | 82 | 285 | 10.0 | 11.0 | 0.00 | 0.00 | 0.00 | 84 | 1008.0 |
| 20260504204913 | 82 | 297 | 1.0 | 11.0 | 0.00 | 0.00 | 0.00 | 84 | 1008.0 |
| 20260504204415 | 83 | 295 | 8.0 | 11.0 | 0.00 | 0.00 | 0.00 | 83 | 1008.0 |
| 20260504203913 | 83 | 284 | 6.0 | 10.0 | 0.00 | 0.00 | 0.00 | 83 | 1008.0 |
| 20260504203414 | 83 | 282 | 2.0 | 8.0 | 0.00 | 0.00 | 0.00 | 83 | 1008.0 |
| 20260504202916 | 83 | 297 | 0.0 | 10.0 | 0.00 | 0.00 | 0.00 | 83 | 1008.0 |
| 20260504202413 | 84 | 292 | 3.0 | 10.0 | 0.00 | 0.00 | 0.00 | 82 | 1008.0 |
| 20260504201914 | 84 | 306 | 6.0 | 10.0 | 0.00 | 0.00 | 0.00 | 83 | 1008.0 |
| 20260504201418 | 84 | 291 | 4.0 | 9.0 | 0.00 | 0.00 | 0.00 | 82 | 1008.0 |
| 20260504200913 | 84 | 288 | 0.0 | 5.0 | 0.00 | 0.00 | 0.00 | 81 | 1008.0 |
| 20260504200413 | 84 | 289 | 0.0 | 1.0 | 0.00 | 0.00 | 0.00 | 81 | 1007.0 |
| 20260504195914 | 84 | 210 | 0.0 | 0.0 | 0.00 | 0.00 | 0.00 | 81 | 1007.0 |
| 20260504195414 | 84 | 204 | 0.0 | 3.0 | 0.00 | 0.00 | 0.00 | 81 | 1007.0 |
| 20260504194913 | 84 | 203 | 0.0 | 3.0 | 0.00 | 0.00 | 0.00 | 81 | 1007.0 |
| 20260504194414 | 84 | 196 | 0.0 | 1.0 | 0.00 | 0.00 | 0.00 | 81 | 1007.0 |
| 20260504193913 | 84 | 176 | 0.0 | 0.0 | 0.00 | 0.00 | 0.00 | 81 | 1008.0 |
| 20260504193413 | 84 | 162 | 0.0 | 1.0 | 0.00 | 0.00 | 0.00 | 81 | 1008.0 |
| 20260504192913 | 84 | 221 | 0.0 | 1.0 | 0.00 | 0.00 | 0.00 | 81 | 1008.0 |
| 20260504192414 | 84 | 156 | 0.0 | 4.0 | 0.00 | 0.00 | 0.00 | 80 | 1008.0 |
| 20260504191914 | 84 | 205 | 0.0 | 5.0 | 0.00 | 0.00 | 0.00 | 80 | 1008.0 |
| 20260504191414 | 84 | 190 | 0.0 | 5.0 | 0.00 | 0.00 | 0.00 | 80 | 1008.0 |
| 20260504190913 | 84 | 153 | 0.0 | 5.0 | 0.00 | 0.00 | 0.00 | 80 | 1008.0 |
| 20260504190414 | 84 | 196 | 0.0 | 5.0 | 0.00 | 0.00 | 0.00 | 80 | 1008.0 |
| 20260504185913 | 84 | 217 | 2.0 | 5.0 | 0.00 | 0.00 | 0.00 | 80 | 1008.0 |
| 20260504185413 | 84 | 139 | 0.0 | 4.0 | 0.00 | 0.00 | 0.00 | 80 | 1008.0 |
| 20260504184914 | 84 | 146 | 0.0 | 4.0 | 0.00 | 0.00 | 0.00 | 80 | 1008.0 |
| 20260504184413 | 84 | 156 | 0.0 | 3.0 | 0.00 | 0.00 | 0.00 | 80 | 1008.0 |
| 20260504183914 | 84 | 195 | 0.0 | 5.0 | 0.00 | 0.00 | 0.00 | 79 | 1008.0 |
| 20260504183413 | 84 | 196 | 1.0 | 5.0 | 0.00 | 0.00 | 0.00 | 79 | 1008.0 |
| 20260504182913 | 84 | 220 | 0.0 | 6.0 | 0.00 | 0.00 | 0.00 | 79 | 1008.0 |
| 20260504182414 | 85 | 200 | 1.0 | 6.0 | 0.00 | 0.00 | 0.00 | 79 | 1008.0 |
| 20260504181913 | 85 | 261 | 0.0 | 5.0 | 0.00 | 0.00 | 0.00 | 79 | 1008.0 |
| 20260504181413 | 85 | 233 | 0.0 | 4.0 | 0.00 | 0.00 | 0.00 | 79 | 1008.0 |
| 20260504180914 | 85 | 196 | 0.0 | 4.0 | 0.00 | 0.00 | 0.00 | 79 | 1008.0 |
| 20260504180414 | 85 | 202 | 2.0 | 4.0 | 0.00 | 0.00 | 0.00 | 79 | 1008.0 |
| 20260504175914 | 85 | 230 | 0.0 | 3.0 | 0.00 | 0.00 | 0.00 | 79 | 1008.0 |
| 20260504175413 | 85 | 203 | 0.0 | 4.0 | 0.00 | 0.00 | 0.00 | 79 | 1008.0 |
| 20260504174914 | 85 | 223 | 4.0 | 4.0 | 0.00 | 0.00 | 0.00 | 79 | 1008.0 |
| 20260504174413 | 85 | 205 | 0.0 | 2.0 | 0.00 | 0.00 | 0.00 | 79 | 1008.0 |
| 20260504173914 | 85 | 231 | 0.0 | 5.0 | 0.00 | 0.00 | 0.00 | 79 | 1008.0 |
| 20260504173414 | 85 | 228 | 0.0 | 6.0 | 0.00 | 0.00 | 0.00 | 79 | 1008.0 |
| 20260504172913 | 86 | 243 | 0.0 | 8.0 | 0.00 | 0.00 | 0.00 | 79 | 1008.0 |
| 20260504172414 | 86 | 187 | 4.0 | 8.0 | 0.00 | 0.00 | 0.00 | 79 | 1008.0 |
| 20260504171913 | 86 | 232 | 4.0 | 6.0 | 0.00 | 0.00 | 0.00 | 79 | 1008.0 |
| 20260504171414 | 86 | 223 | 2.0 | 5.0 | 0.00 | 0.00 | 0.00 | 79 | 1008.0 |
| 20260504170914 | 86 | 229 | 0.0 | 7.0 | 0.00 | 0.00 | 0.00 | 79 | 1009.0 |
| 20260504170414 | 86 | 238 | 0.0 | 7.0 | 0.00 | 0.00 | 0.00 | 79 | 1008.0 |
| 20260504160414 | 87 | 153 | 4.0 | 8.0 | 0.00 | 0.00 | 0.00 | 80 | 1008.0 |
| 20260504150913 | 88 | 142 | 0.0 | 12.0 | 0.00 | 0.00 | 0.00 | 79 | 1007.0 |
| 20260504150414 | 88 | 146 | 5.0 | 12.0 | 0.00 | 0.00 | 0.00 | 79 | 1007.0 |
| 20260504140914 | 88 | 116 | 2.0 | 11.0 | 0.00 | 0.00 | 0.00 | 81 | 1006.0 |
| 20260504140416 | 88 | 132 | 11.0 | 11.0 | 0.00 | 0.00 | 0.00 | 81 | 1006.0 |
| 20260504130415 | 88 | 117 | 8.0 | 11.0 | 0.00 | 0.00 | 0.00 | 82 | 1005.0 |
| 20260504110414 | 95 | 176 | 8.0 | 9.0 | 0.00 | 0.00 | 0.00 | 69 | 1004.0 |
| 20260504100414 | 96 | 165 | 3.0 | 9.0 | 0.00 | 0.00 | 0.00 | 65 | 1004.0 |
| 20260504081916 | 97 | 283 | 0.0 | 9.0 | 0.00 | 0.00 | 0.00 | 64 | 1005.0 |
| 20260504081413 | 96 | 293 | 7.0 | 9.0 | 0.00 | 0.00 | 0.00 | 65 | 1006.0 |
| 20260504080913 | 96 | 286 | 4.0 | 11.0 | 0.00 | 0.00 | 0.00 | 65 | 1006.0 |
| 20260504080414 | 96 | 281 | 0.0 | 11.0 | 0.00 | 0.00 | 0.00 | 65 | 1006.0 |
| 20260504050414 | 92 | 140 | 7.0 | 14.0 | 0.00 | 0.00 | 0.00 | 72 | 1009.0 |
| 20260504045913 | 92 | 179 | 7.0 | 13.0 | 0.00 | 0.00 | 0.00 | 73 | 1009.0 |
| 20260504045413 | 91 | 150 | 7.0 | 13.0 | 0.00 | 0.00 | 0.00 | 73 | 1009.0 |
| 20260504044914 | 91 | 146 | 7.0 | 11.0 | 0.00 | 0.00 | 0.00 | 73 | 1009.0 |
| 20260504044413 | 90 | 221 | 0.0 | 10.0 | 0.00 | 0.00 | 0.00 | 75 | 1009.0 |
| 20260504043913 | 89 | 138 | 6.0 | 14.0 | 0.00 | 0.00 | 0.00 | 74 | 1009.0 |
| 20260504043413 | 89 | 153 | 6.0 | 14.0 | 0.00 | 0.00 | 0.00 | 74 | 1009.0 |
| 20260504042913 | 89 | 226 | 3.0 | 11.0 | 0.00 | 0.00 | 0.00 | 74 | 1009.0 |
| 20260504042413 | 88 | 131 | 6.0 | 12.0 | 0.00 | 0.00 | 0.00 | 74 | 1009.0 |
| 20260504041913 | 88 | 143 | 3.0 | 16.0 | 0.00 | 0.00 | 0.00 | 75 | 1009.0 |
| 20260504041413 | 88 | 144 | 12.0 | 16.0 | 0.00 | 0.00 | 0.00 | 75 | 1009.0 |
| 20260504040913 | 88 | 144 | 9.0 | 16.0 | 0.00 | 0.00 | 0.00 | 76 | 1009.0 |
| 20260504040413 | 88 | 109 | 9.0 | 14.0 | 0.00 | 0.00 | 0.00 | 76 | 1009.0 |
| 20260504035913 | 88 | 116 | 12.0 | 14.0 | 0.00 | 0.00 | 0.00 | 76 | 1009.0 |
| 20260504035413 | 88 | 122 | 9.0 | 17.0 | 0.00 | 0.00 | 0.00 | 76 | 1009.0 |
| 20260504034913 | 88 | 115 | 13.0 | 17.0 | 0.00 | 0.00 | 0.00 | 75 | 1009.0 |
| 20260504034413 | 89 | 146 | 6.0 | 11.0 | 0.00 | 0.00 | 0.00 | 77 | 1009.0 |
| 20260504033913 | 89 | 129 | 5.0 | 9.0 | 0.00 | 0.00 | 0.00 | 77 | 1009.0 |
| 20260504033413 | 89 | 111 | 2.0 | 8.0 | 0.00 | 0.00 | 0.00 | 77 | 1009.0 |
| 20260504032913 | 89 | 117 | 1.0 | 2.0 | 0.00 | 0.00 | 0.00 | 76 | 1009.0 |
| 20260504032413 | 89 | 118 | 0.0 | 1.0 | 0.00 | 0.00 | 0.00 | 76 | 1009.0 |
| 20260504031913 | 89 | 121 | 0.0 | 1.0 | 0.00 | 0.00 | 0.00 | 76 | 1009.0 |
| 20260504031413 | 88 | 163 | 0.0 | 4.0 | 0.00 | 0.00 | 0.00 | 77 | 1009.0 |
| 20260504030915 | 88 | 114 | 0.0 | 6.0 | 0.00 | 0.00 | 0.00 | 77 | 1009.0 |
| 20260504030413 | 88 | 113 | 0.0 | 6.0 | 0.00 | 0.00 | 0.00 | 77 | 1009.0 |
| 20260504025913 | 87 | 154 | 0.0 | 4.0 | 0.00 | 0.00 | 0.00 | 78 | 1008.0 |
| 20260504025413 | 87 | 139 | 0.0 | 6.0 | 0.00 | 0.00 | 0.00 | 78 | 1008.0 |
| 20260504024913 | 87 | 163 | 0.0 | 9.0 | 0.00 | 0.00 | 0.00 | 78 | 1008.0 |
| 20260504024413 | 86 | 105 | 0.0 | 9.0 | 0.00 | 0.00 | 0.00 | 78 | 1008.0 |
| 20260504023913 | 86 | 103 | 4.0 | 9.0 | 0.00 | 0.00 | 0.00 | 79 | 1008.0 |
| 20260504023413 | 86 | 146 | 0.0 | 9.0 | 0.00 | 0.00 | 0.00 | 80 | 1008.0 |
| 20260504022913 | 86 | 103 | 0.0 | 8.0 | 0.00 | 0.00 | 0.00 | 80 | 1008.0 |
| 20260504022414 | 85 | 116 | 6.0 | 8.0 | 0.00 | 0.00 | 0.00 | 81 | 1008.0 |
| 20260504021913 | 85 | 129 | 0.0 | 6.0 | 0.00 | 0.00 | 0.00 | 81 | 1008.0 |
| 20260504021413 | 85 | 106 | 6.0 | 7.0 | 0.00 | 0.00 | 0.00 | 81 | 1008.0 |
| 20260504020913 | 85 | 124 | 0.0 | 9.0 | 0.00 | 0.00 | 0.00 | 81 | 1008.0 |
| 20260504020413 | 85 | 138 | 0.0 | 9.0 | 0.00 | 0.00 | 0.00 | 81 | 1008.0 |
| 20260504015914 | 84 | 107 | 5.0 | 10.0 | 0.00 | 0.00 | 0.00 | 81 | 1008.0 |
| 20260504015413 | 84 | 113 | 4.0 | 14.0 | 0.00 | 0.00 | 0.00 | 81 | 1008.0 |
| 20260504014913 | 84 | 130 | 1.0 | 14.0 | 0.00 | 0.00 | 0.00 | 82 | 1007.0 |
| 20260504014413 | 84 | 85 | 1.0 | 11.0 | 0.00 | 0.00 | 0.00 | 81 | 1007.0 |
| 20260504013913 | 84 | 119 | 5.0 | 10.0 | 0.00 | 0.00 | 0.00 | 80 | 1007.0 |
| 20260504013413 | 84 | 78 | 7.0 | 13.0 | 0.00 | 0.00 | 0.00 | 80 | 1007.0 |
| 20260504012913 | 84 | 89 | 9.0 | 13.0 | 0.00 | 0.00 | 0.00 | 80 | 1007.0 |
| 20260504012413 | 84 | 77 | 6.0 | 14.0 | 0.00 | 0.00 | 0.00 | 80 | 1007.0 |
| 20260504011913 | 84 | 72 | 5.0 | 14.0 | 0.00 | 0.00 | 0.00 | 81 | 1007.0 |
| 20260504011413 | 84 | 103 | 3.0 | 14.0 | 0.00 | 0.00 | 0.00 | 81 | 1007.0 |
| 20260504010914 | 84 | 115 | 9.0 | 15.0 | 0.00 | 0.00 | 0.00 | 81 | 1007.0 |
| 20260504010415 | 84 | 99 | 7.0 | 15.0 | 0.00 | 0.00 | 0.00 | 81 | 1007.0 |
| 20260504005913 | 84 | 87 | 11.0 | 12.0 | 0.00 | 0.00 | 0.00 | 81 | 1007.0 |
| 20260504005413 | 84 | 108 | 3.0 | 12.0 | 0.00 | 0.00 | 0.00 | 80 | 1007.0 |
| 20260504004914 | 84 | 99 | 5.0 | 12.0 | 0.00 | 0.00 | 0.00 | 80 | 1007.0 |
| 20260504004413 | 84 | 57 | 0.0 | 10.0 | 0.00 | 0.00 | 0.00 | 80 | 1007.0 |
| 20260504003913 | 84 | 89 | 3.0 | 6.0 | 0.00 | 0.00 | 0.00 | 80 | 1007.0 |
| 20260504003413 | 84 | 79 | 0.0 | 6.0 | 0.00 | 0.00 | 0.00 | 80 | 1007.0 |
| 20260504002913 | 84 | 91 | 0.0 | 7.0 | 0.00 | 0.00 | 0.00 | 80 | 1007.0 |
| 20260504002413 | 84 | 68 | 4.0 | 9.0 | 0.00 | 0.00 | 0.00 | 80 | 1007.0 |
| 20260504001913 | 84 | 75 | 3.0 | 11.0 | 0.00 | 0.00 | 0.00 | 80 | 1007.0 |
| 20260504001413 | 84 | 96 | 7.0 | 11.0 | 0.00 | 0.00 | 0.00 | 80 | 1007.0 |
| 20260504000913 | 84 | 107 | 3.0 | 12.0 | 0.00 | 0.00 | 0.00 | 80 | 1007.0 |
| 20260504000416 | 84 | 96 | 5.0 | 13.0 | 0.00 | 0.00 | 0.00 | 81 | 1007.0 |
| 20260503235914 | 84 | 107 | 7.0 | 13.0 | 0.00 | 0.00 | 0.00 | 81 | 1007.0 |
| 20260503235413 | 84 | 124 | 4.0 | 12.0 | 0.00 | 0.00 | 0.00 | 81 | 1007.0 |
| 20260503234914 | 84 | 83 | 5.0 | 12.0 | 0.00 | 0.00 | 0.00 | 82 | 1007.0 |
| 20260503234413 | 84 | 71 | 0.0 | 10.0 | 0.00 | 0.00 | 0.00 | 82 | 1007.0 |
| 20260503233913 | 83 | 79 | 0.0 | 10.0 | 0.00 | 0.00 | 0.00 | 83 | 1007.0 |
| 20260503233413 | 83 | 94 | 0.0 | 9.0 | 0.00 | 0.00 | 0.00 | 83 | 1007.0 |
| 20260503232914 | 83 | 79 | 5.0 | 8.0 | 0.00 | 0.00 | 0.00 | 82 | 1007.0 |
| 20260503232413 | 83 | 82 | 6.0 | 8.0 | 0.00 | 0.00 | 0.00 | 82 | 1007.0 |
| 20260503231913 | 83 | 91 | 3.0 | 9.0 | 0.00 | 0.00 | 0.00 | 82 | 1007.0 |
| 20260503231413 | 83 | 84 | 0.0 | 9.0 | 0.00 | 0.00 | 0.00 | 82 | 1007.0 |
| 20260503230913 | 83 | 86 | 0.0 | 15.0 | 0.00 | 0.00 | 0.00 | 83 | 1007.0 |
| 20260503230413 | 84 | 47 | 2.0 | 15.0 | 0.00 | 0.00 | 0.00 | 83 | 1007.0 |
| 20260503225914 | 85 | 99 | 2.0 | 15.0 | 0.00 | 0.00 | 0.00 | 81 | 1007.0 |
| 20260503225413 | 86 | 51 | 5.0 | 15.0 | 0.00 | 0.00 | 0.00 | 79 | 1007.0 |
| 20260503224913 | 87 | 70 | 0.0 | 10.0 | 0.00 | 0.00 | 0.00 | 75 | 1007.0 |
| 20260503224414 | 87 | 122 | 0.0 | 0.0 | 0.00 | 0.00 | 0.00 | 72 | 1006.0 |
| 20260503223913 | 87 | 122 | 0.0 | 0.0 | 0.00 | 0.00 | 0.00 | 72 | 1006.0 |
| 20260503223414 | 87 | 122 | 0.0 | 0.0 | 0.00 | 0.00 | 0.00 | 72 | 1006.0 |